Showing default

COSMOS 2090, 20735

Orbit data source: Space-Track

COSMOS 2090, 20735 is a payload satellite owned by UNKS (CIS) in LEO that was launched on Wed, 08 Aug 1990 UTC via a TSIKLON-3 launch vehicle from the Plesetsk Missile And Space Complex (PKMTR). Payload-class satellites include a variety of spacecraft equipped with specific instruments for various scientific and technological missions. These include communications satellites like Starlink; space stations such as the ISS; scientific satellites like the Hubble; Earth observation satellites from companies like Planet Labs, Umbra, and HawkEye 360; GPS; miniature CubeSats for education and research; and military/defense satellites.

Loading next visibility...
Identifier
20735, 1990-070A
Orbit
LEO
Country
Flag of CISCIS
Related business
Manufacturer
NPO PM
Mission
Defense Communications
Bus & Motor
STRELA-3, Unknown motor
Mass
225 kg wet, 225 kg dry
Launch date (UTC)
1990-08-08 (35 years ago)
Launch vehicle
TSIKLON-3
Launch site
Plesetsk Missile And Space Complex (PKMTR)
Object type
Payload
Rocket body
Debris
Shape & HBR
Cyl, 0.8 m
Radar Cross Section
1.257 m², Large (>1 m²)

Expand to show TLE details & history
Last TLE update: 17 hours ago

TLE from 17 hours ago
0 COSMOS 2090
1 20735U 90070A   25341.13260125  .00000040  00000-0  15795-3 0  9992
2 20735  82.5682  35.6397 0015151 139.0394 249.1130 12.65359187631642
Epoch: 2025-12-07T03:10Z
TLE epoch observation values (Epoch: 2025-12-07T03:10:56.747Z)
Latitude
27.77287°
Longitude
-84.32756°
Altitude
1,408.393 km
Speed
7.157 km/s
True Right ascension
02h 38m 14s
True Declination
27° 38' 35"
Sunlit
Object was in full shadow at epoch
Visualization orbit readout
Latitude
Unknown
Longitude
Unknown
Altitude
Unknown
Speed
Unknown
Apparent Right ascension
Unknown
Apparent Declination
Unknown
Sunlit
N/A
Visualization observer readout
Local Sidereal Time
17:55:54
Azimuth
Unknown
Elevation
Unknown
Doppler factor
Unknown
Orbital elements
Apogee altitude
1,410.001 km
Perigee altitude
1,386.437 km
Semi-major axis
7,776.356 km
Eccentricity
0.00152
Inclination
82.5682°
RAAN
35.6397°
Arg. of periapsis
139.0394°
True anomaly
248.9509°
Mean anomaly
249.113°
Eccentric anomaly
249.03194°
Mean motion
3.16504 °/min
Orbital period
113.74 mins
BSTAR
0.00015795
Loading maneuver chart data...
Computing Atmospheric mass density...
Loading historical data...
Loading historical data...
Loading historical data...
Loading historical data...
Loading historical data...
Loading historical data...
Loading historical data...

Documentation

Showing up to 5 results
|